GFSMW_prec_snow_159.txt.gz
Snowfall_Accumulation
0.0 0.0 0.0 0.0 0.0 0.0 0.0 0.0 0.0 0.0 0.0 0.0 0.0 0.0 0.0 0.0 0.0 0.0 0.0 0.0 0.0 0.0 0.0 0.0 0.0 0.0 0.0 0.0 0.0 0.0 0.0 0.0 0.0 0.0 0.0 0.0 0.0 0.0 0.0 0.0 0.0 0.0 0.0
0.0 0.0 0.0 0.0 0.0 0.0 0.0 0.0 0.0 0.0 0.0 0.0 0.0 0.0 0.0 0.0 0.0 0.0 0.0 0.0 0.0 0.0 0.0 0.0 0.0 0.0 0.0 0.0 0.0 0.0 0.0 0.0 0.0 0.0 0.0 0.0 0.0 0.0 0.0 0.0 0.0 0.0 0.0
0.0 0.0 0.0 0.0 0.0 0.0 0.0 0.0 0.0 0.0 0.0 0.0 0.0 0.0 0.0 0.0 0.0 0.0 0.0 0.0 0.0 0.0 0.0 0.0 0.0 0.0 0.0 0.0 0.0 0.0 0.0 0.0 0.0 0.0 0.0 0.0 0.0 0.0 0.0 0.0 0.0 0.0 0.0
0.0 0.0 0.0 0.0 0.0 0.0 0.0 0.0 0.0 0.0 0.0 0.0 0.0 0.0 0.0 0.0 0.0 0.0 0.0 0.0 0.0 0.0 0.0 0.0 0.0 0.0 0.0 0.0 0.0 0.0 0.0 0.0 0.0 0.0 0.0 0.0 0.0 0.0 0.0 0.0 0.0 0.0 0.0
0.0 0.0 0.0 0.0 0.0 0.0 0.0 0.0 0.0 0.0 0.0 0.0 0.0 0.0 0.0 0.0 0.0 0.0 0.0 0.0 0.0 0.0 0.0 0.0 0.0 0.0 0.0 0.0 0.0 0.0 0.0 0.0 0.0 0.0 0.0 0.0 0.0 0.0 0.0 0.0 0.0 0.0 0.0
0.0 0.0 0.0 0.0 0.0 0.0 0.0 0.0 0.0 0.0 0.0 0.0 0.0 0.0 0.0 0.0 0.0 0.0 0.0 0.0 0.0 0.0 0.0 0.0 0.0 0.0 0.0 0.0 0.0 0.0 0.0 0.0 0.0 0.0 0.0 0.0 0.0 0.0 0.0 0.0 0.0 0.0 0.0
0.0 0.0 0.0 0.0 0.0 0.0 0.0 0.0 0.0 0.0 0.0 0.0 0.0 0.0 0.0 0.0 0.0 0.0 0.0 0.0 0.0 0.0 0.0 0.0 0.0 0.0 0.0 0.0 0.0 0.0 0.0 0.0 0.0 0.0 0.0 0.0 0.0 0.0 0.0 0.0 0.0 0.0 0.0
3.1 1.7 0.5 0.0 0.0 0.0 0.0 0.0 0.0 0.0 0.0 0.0 0.0 0.0 0.0 0.0 0.0 0.0 0.0 0.0 0.0 0.0 0.0 0.0 0.0 0.0 0.0 0.0 0.0 0.0 0.0 0.0 0.0 0.0 0.0 0.0 0.0 0.0 0.1 0.1 0.1 0.0 0.0
0.0 3.1 1.6 1.6 0.9 0.0 0.0 0.0 0.0 0.0 0.0 0.0 0.0 0.0 0.0 0.0 0.0 0.0 0.0 0.0 0.0 0.0 0.0 0.0 0.0 0.0 0.0 0.0 0.0 0.0 0.0 0.0 0.0 0.0 0.0 0.0 0.0 0.2 0.0 0.2 0.3 0.5 0.3
3.1 0.0 1.6 0.8 0.0 0.0 0.0 0.0 0.0 0.0 0.0 0.0 0.0 0.0 0.0 0.0 0.0 0.0 0.0 0.0 0.0 0.0 0.0 0.0 0.0 0.0 0.0 0.0 0.0 0.0 0.0 0.1 0.1 0.1 0.1 0.0 0.0 0.2 0.2 0.3 0.5 0.6 0.7
1.0 1.0 0.9 0.6 0.0 0.0 0.0 0.2 0.2 0.0 0.1 0.0 0.0 0.0 0.0 0.0 0.0 0.0 0.0 0.0 0.0 0.0 0.0 0.0 0.0 0.0 0.0 0.0 0.0 0.0 0.0 0.0 0.4 0.1 0.2 0.1 0.5 0.6 0.5 0.7 0.7 0.7 0.6
0.0 0.3 0.2 0.1 0.0 0.0 0.0 0.0 0.0 0.0 0.0 0.0 0.0 0.0 0.0 0.0 0.0 0.0 0.0 0.0 0.0 0.0 0.0 0.0 0.0 0.0 0.0 0.0 0.0 0.0 0.0 0.0 0.0 0.0 0.0 0.0 0.2 0.2 0.4 0.8 1.1 1.1 0.8
0.0 0.0 0.0 0.0 0.0 0.0 0.0 0.0 0.0 0.0 0.0 0.0 0.0 0.0 0.0 0.0 0.0 0.0 0.0 0.0 0.0 0.0 0.0 0.0 0.0 0.0 0.0 0.0 0.0 0.0 0.0 0.0 0.0 0.0 0.0 0.0 0.0 0.0 0.1 0.1 0.2 0.0 0.1
0.0 0.0 0.0 0.0 0.0 0.0 0.0 0.0 0.0 0.0 0.0 0.0 0.0 0.0 0.0 0.0 0.0 0.0 0.0 0.0 0.0 0.0 0.0 0.0 0.0 0.0 0.0 0.0 0.0 0.0 0.0 0.0 0.0 0.0 0.0 0.0 0.0 0.0 0.0 0.1 0.1 0.1 0.2
0.0 0.0 0.0 0.0 0.0 0.0 0.0 0.0 0.0 0.0 0.0 0.0 0.0 0.0 0.0 0.0 0.0 0.0 0.0 0.0 0.0 0.0 0.0 0.0 0.0 0.0 0.0 0.0 0.0 0.0 0.1 0.0 0.0 0.0 0.0 0.0 0.1 0.0 0.0 0.2 0.3 0.1 0.1
0.1 0.0 0.0 0.0 0.0 0.0 0.1 0.1 0.1 0.2 0.0 0.2 0.0 0.0 0.0 0.0 0.0 0.0 0.0 0.0 0.0 0.0 0.0 0.0 0.0 0.0 0.2 0.7 0.0 0.1 0.1 0.0 0.0 0.0 0.0 0.0 0.0 0.0 0.0 0.0 0.1 0.3 0.4
0.2 0.0 0.5 0.1 0.3 0.4 0.6 0.7 0.7 0.4 0.1 0.4 0.3 0.4 1.4 0.0 0.9 0.9 1.3 1.6 1.2 0.8 1.0 1.1 1.0 1.0 1.5 0.5 0.2 0.1 0.1 0.0 0.0 0.0 0.0 0.0 0.0 0.0 0.0 0.0 0.0 0.0 0.1
2.9 2.3 2.2 2.1 1.8 1.0 1.1 0.8 1.6 0.9 3.6 2.7 3.2 2.9 4.1 4.7 6.1 6.3 5.2 4.2 2.9 2.7 2.8 2.7 1.8 1.5 1.6 0.6 0.8 0.9 0.8 0.8 0.0 0.9 1.0 1.0 0.2 0.0 0.0 0.1 0.1 0.2 0.2
5.1 7.8 2.8 2.8 3.3 2.7 2.9 7.3 6.3 6.6 6.5 7.9 8.6 8.7 9.3 8.5 8.1 7.6 6.7 5.7 4.9 4.6 4.7 2.8 2.6 1.8 1.8 2.1 2.4 2.8 1.2 0.8 0.9 1.4 0.9 0.9 1.5 3.1 4.3 0.8 0.9 1.2 1.7
5.6 5.3 8.6 8.1 6.4 6.7 4.7 7.1 10.5 12.9 13.6 15.3 15.9 11.2 9.9 9.4 10.6 8.9 9.3 9.8 6.4 6.2 5.3 7.9 4.3 5.0 1.8 2.8 4.6 2.3 3.1 1.3 5.7 2.7 2.8 3.9 1.7 2.1 2.3 0.9 1.3 1.9 2.8
5.2 5.3 4.8 6.3 9.1 8.4 8.6 9.3 11.8 13.2 15.3 18.0 15.9 13.1 12.9 13.7 12.7 11.3 11.1 14.4 15.8 11.7 6.2 7.3 7.8 7.4 5.4 7.7 9.3 4.7 8.2 7.3 3.9 4.7 2.8 4.3 5.4 6.1 2.7 3.2 4.5 7.5 3.6
4.0 3.3 3.7 3.6 2.8 2.2 2.1 7.9 12.4 15.1 17.2 17.0 14.1 11.9 10.9 11.0 11.9 11.4 12.5 12.0 13.0 15.9 18.1 16.5 14.3 13.8 12.8 12.6 10.5 10.1 9.9 8.5 7.7 7.0 6.5 6.6 5.7 4.9 7.0 6.0 6.2 7.2 6.3
2.5 1.3 1.2 0.6 0.4 0.4 0.2 1.3 3.5 7.5 11.6 12.6 12.0 10.4 9.4 8.7 7.6 7.8 9.0 9.7 9.8 9.3 9.3 9.6 11.4 12.7 13.5 14.1 13.8 14.8 14.1 12.5 11.6 12.1 11.8 11.2 7.9 6.4 7.3 7.9 9.5 10.8 7.1
1.7 0.6 0.1 0.0 0.3 0.5 0.6 0.1 1.3 2.9 4.2 4.7 5.3 5.9 5.7 5.9 5.6 4.9 4.9 5.0 5.8 6.2 6.8 6.7 6.4 6.6 6.3 7.5 7.9 8.4 8.1 7.9 10.3 10.6 11.9 10.9 13.7 15.8 13.2 19.0 18.1 14.1 18.1
3.2 1.2 0.6 0.5 0.9 0.5 0.3 1.2 1.9 2.5 3.5 4.1 4.2 4.2 4.1 3.6 3.4 3.6 3.0 2.6 3.6 2.8 2.5 3.9 3.4 3.8 5.9 7.7 6.5 6.5 8.2 8.4 9.2 13.8 19.8 19.8 20.0 19.5 19.6 19.2 19.0 18.6 17.5
2.3 1.5 1.5 1.0 1.3 0.1 1.3 1.8 1.6 0.9 1.4 1.9 3.0 2.4 2.9 2.0 1.9 1.2 2.5 2.7 2.1 1.9 1.2 1.3 5.0 5.6 10.2 13.9 13.4 13.3 13.3 13.9 13.3 12.8 12.9 12.8 11.8 11.5 11.5 10.3 10.3 9.4 8.9

GFSMW_prec_snow_162.txt.gz
Snowfall_Accumulation
0.0 0.0 0.0 0.0 0.0 0.0 0.0 0.0 0.0 0.0 0.0 0.0 0.0 0.0 0.0 0.0 0.0 0.0 0.0 0.0 0.0 0.0 0.0 0.0 0.0 0.0 0.0 0.0 0.0 0.0 0.0 0.0 0.0 0.0 0.0 0.0 0.0 0.0 0.0 0.0 0.0 0.0 0.0
0.0 0.0 0.0 0.0 0.0 0.0 0.0 0.0 0.0 0.0 0.0 0.0 0.0 0.0 0.0 0.0 0.0 0.0 0.0 0.0 0.0 0.0 0.0 0.0 0.0 0.0 0.0 0.0 0.0 0.0 0.0 0.0 0.0 0.0 0.0 0.0 0.0 0.0 0.0 0.0 0.0 0.0 0.0
0.0 0.0 0.0 0.0 0.0 0.0 0.0 0.0 0.0 0.0 0.0 0.0 0.0 0.0 0.0 0.0 0.0 0.0 0.0 0.0 0.0 0.0 0.0 0.0 0.0 0.0 0.0 0.0 0.0 0.0 0.0 0.0 0.0 0.0 0.0 0.0 0.0 0.0 0.0 0.0 0.0 0.0 0.0
0.0 0.0 0.0 0.0 0.0 0.0 0.0 0.0 0.0 0.0 0.0 0.0 0.0 0.0 0.0 0.0 0.0 0.0 0.0 0.0 0.0 0.0 0.0 0.0 0.0 0.0 0.0 0.0 0.0 0.0 0.0 0.0 0.0 0.0 0.0 0.0 0.0 0.0 0.0 0.0 0.0 0.0 0.0
0.0 0.0 0.0 0.0 0.0 0.0 0.0 0.0 0.0 0.0 0.0 0.0 0.0 0.0 0.0 0.0 0.0 0.0 0.0 0.0 0.0 0.0 0.0 0.0 0.0 0.0 0.0 0.0 0.0 0.0 0.0 0.0 0.0 0.0 0.0 0.0 0.0 0.0 0.0 0.0 0.0 0.0 0.0
0.0 0.0 0.0 0.0 0.0 0.0 0.0 0.0 0.0 0.0 0.0 0.0 0.0 0.0 0.0 0.0 0.0 0.0 0.0 0.0 0.0 0.0 0.0 0.0 0.0 0.0 0.0 0.0 0.0 0.0 0.0 0.0 0.0 0.0 0.0 0.0 0.0 0.0 0.0 0.0 0.0 0.0 0.0
0.0 0.0 0.0 0.0 0.0 0.0 0.0 0.0 0.0 0.0 0.0 0.0 0.0 0.0 0.0 0.0 0.0 0.0 0.0 0.0 0.0 0.0 0.0 0.0 0.0 0.0 0.0 0.0 0.0 0.0 0.0 0.0 0.0 0.0 0.0 0.0 0.0 0.0 0.0 0.0 0.0 0.0 0.0
3.1 1.7 0.5 0.0 0.0 0.0 0.0 0.0 0.0 0.0 0.0 0.0 0.0 0.0 0.0 0.0 0.0 0.0 0.0 0.0 0.0 0.0 0.0 0.0 0.0 0.0 0.0 0.0 0.0 0.0 0.0 0.0 0.0 0.0 0.0 0.0 0.0 0.0 0.1 0.1 0.1 0.0 0.0
0.0 3.1 1.6 1.6 0.9 0.0 0.0 0.0 0.0 0.0 0.0 0.0 0.0 0.0 0.0 0.0 0.0 0.0 0.0 0.0 0.0 0.0 0.0 0.0 0.0 0.0 0.0 0.0 0.0 0.0 0.0 0.0 0.0 0.0 0.0 0.0 0.0 0.2 0.0 0.2 0.3 0.5 0.3
3.1 0.0 1.6 0.8 0.0 0.0 0.0 0.0 0.0 0.0 0.0 0.0 0.0 0.0 0.0 0.0 0.0 0.0 0.0 0.0 0.0 0.0 0.0 0.0 0.0 0.0 0.0 0.0 0.0 0.0 0.0 0.1 0.1 0.1 0.1 0.0 0.0 0.2 0.2 0.3 0.5 0.6 0.7
1.0 1.0 0.9 0.6 0.0 0.0 0.0 0.2 0.2 0.0 0.1 0.0 0.0 0.0 0.0 0.0 0.0 0.0 0.0 0.0 0.0 0.0 0.0 0.0 0.0 0.0 0.0 0.0 0.0 0.0 0.0 0.0 0.4 0.1 0.2 0.1 0.5 0.6 0.5 0.7 0.7 0.7 0.6
0.0 0.3 0.2 0.1 0.0 0.0 0.0 0.0 0.0 0.0 0.0 0.0 0.0 0.0 0.0 0.0 0.0 0.0 0.0 0.0 0.0 0.0 0.0 0.0 0.0 0.0 0.0 0.0 0.0 0.0 0.0 0.0 0.0 0.0 0.0 0.0 0.2 0.2 0.4 0.8 1.1 1.1 0.8
0.0 0.0 0.0 0.0 0.0 0.0 0.0 0.0 0.0 0.0 0.0 0.0 0.0 0.0 0.0 0.0 0.0 0.0 0.0 0.0 0.0 0.0 0.0 0.0 0.0 0.0 0.0 0.0 0.0 0.0 0.0 0.0 0.1 0.1 0.1 0.1 0.1 0.1 0.1 0.1 0.2 0.0 0.1
0.0 0.0 0.0 0.0 0.0 0.0 0.0 0.0 0.0 0.0 0.0 0.0 0.0 0.0 0.0 0.0 0.0 0.0 0.0 0.0 0.0 0.0 0.0 0.0 0.0 0.0 0.0 0.0 0.0 0.0 0.0 0.0 0.0 0.3 0.1 0.0 0.0 0.1 0.0 0.1 0.1 0.1 0.2
0.0 0.0 0.0 0.0 0.0 0.0 0.0 0.0 0.0 0.0 0.0 0.0 0.0 0.0 0.0 0.0 0.0 0.0 0.0 0.0 0.0 0.0 0.0 0.0 0.0 0.0 0.0 0.0 0.0 0.0 0.1 0.3 0.5 0.2 0.0 0.0 0.1 0.0 0.0 0.2 0.3 0.1 0.1
0.1 0.0 0.0 0.0 0.0 0.0 0.1 0.1 0.1 0.2 0.0 0.2 0.0 0.0 0.0 0.0 0.0 0.0 0.0 0.0 0.0 0.0 0.0 0.4 0.0 0.0 0.2 0.7 0.0 0.4 0.3 0.3 0.0 0.1 0.0 0.0 0.0 0.0 0.0 0.0 0.1 0.3 0.4
0.2 0.0 0.5 0.1 0.3 0.4 0.6 0.7 0.7 0.4 0.1 0.4 0.3 0.4 1.4 0.0 0.9 0.9 1.3 1.6 1.2 0.8 1.7 1.8 1.7 1.8 2.2 1.1 0.6 0.4 0.3 0.3 0.2 0.0 0.0 0.0 0.0 0.0 0.0 0.0 0.0 0.0 0.1
2.9 2.3 2.2 2.1 1.8 1.0 1.1 0.8 1.6 0.9 3.6 2.7 3.2 2.9 4.1 4.7 6.1 6.3 5.9 5.2 4.0 3.6 3.8 3.8 3.1 2.8 2.9 1.6 1.3 1.4 1.1 1.0 0.1 0.9 1.0 1.0 0.2 0.0 0.0 0.1 0.1 0.2 0.2
5.1 7.8 2.8 2.8 3.3 2.7 2.9 7.3 6.3 6.6 6.5 7.9 8.6 8.7 9.3 8.5 8.1 8.8 8.1 7.3 6.5 5.9 5.5 4.0 4.3 3.4 2.7 2.8 2.7 3.0 1.3 1.0 1.0 1.4 0.9 0.9 1.5 3.1 4.3 0.8 0.9 1.2 1.7
5.6 5.3 8.6 8.1 6.4 6.7 4.7 7.1 10.5 12.9 13.6 15.3 15.9 11.2 9.9 9.4 10.6 8.9 10.4 11.0 7.4 6.9 6.2 9.2 5.8 6.2 2.5 3.3 5.0 2.5 3.3 1.4 5.7 2.7 2.8 3.9 1.7 2.1 2.3 0.9 1.3 1.9 2.8
5.2 5.3 4.8 6.3 9.1 8.4 8.6 9.3 11.8 13.2 15.3 18.0 15.9 13.1 12.9 13.7 12.7 11.7 11.5 14.8 16.3 12.5 7.3 8.5 8.9 8.1 6.2 8.7 9.9 4.8 8.2 7.3 3.9 4.7 2.8 4.3 5.4 6.1 2.7 3.2 4.5 7.5 3.6
4.0 3.3 3.7 3.6 2.8 2.2 2.1 7.9 12.4 15.1 17.2 17.0 14.1 11.9 10.9 11.0 12.1 11.7 13.0 12.5 13.5 16.5 18.9 17.3 15.2 14.5 13.6 13.3 10.9 10.2 10.0 8.5 7.7 7.0 6.5 6.6 5.7 4.9 7.0 6.0 6.2 7.2 6.3
2.5 1.3 1.2 0.6 0.4 0.4 0.2 1.3 3.5 7.5 11.6 12.6 12.0 10.4 9.5 8.8 7.7 7.9 9.3 10.2 10.3 9.9 10.0 10.4 12.1 13.5 14.0 14.5 14.1 14.8 14.1 12.5 11.6 12.1 11.8 11.2 7.9 6.4 7.3 7.9 9.5 10.8 7.1
1.7 0.6 0.1 0.0 0.3 0.5 0.6 0.1 1.3 2.9 4.2 4.7 5.4 6.0 5.9 6.1 5.9 5.3 5.2 5.0 6.3 6.8 7.4 7.4 7.1 7.0 6.5 7.6 8.1 8.6 8.1 7.9 10.3 10.6 11.9 10.9 13.7 15.8 13.2 19.0 18.1 14.1 18.1
3.2 1.2 0.6 0.5 0.9 0.5 0.3 1.2 1.9 2.5 3.5 4.2 4.4 4.4 4.3 3.8 3.7 3.9 3.3 3.0 4.1 3.1 2.9 4.3 3.7 3.9 6.0 7.7 6.5 6.5 8.2 8.4 9.2 13.8 19.8 19.8 20.0 19.5 19.6 19.2 19.0 18.6 17.5
2.3 1.5 1.5 1.0 1.3 0.1 1.3 1.8 1.6 0.9 1.4 2.0 3.2 2.6 3.1 2.2 2.1 1.3 3.0 3.4 2.9 2.5 1.5 1.3 5.0 5.6 10.2 13.9 13.4 13.3 13.3 13.9 13.3 12.8 12.9 12.8 11.8 11.5 11.5 10.3 10.3 9.4 8.9

GFSMW_prec_snow_168.txt.gz
Snowfall_Accumulation
0.0 0.0 0.0 0.0 0.0 0.0 0.0 0.0 0.0 0.0 0.0 0.0 0.0 0.0 0.0 0.0 0.0 0.0 0.0 0.0 0.0 0.0 0.0 0.0 0.0 0.0 0.0 0.0 0.0 0.0 0.0 0.0 0.0 0.0 0.0 0.0 0.0 0.0 0.0 0.0 0.0 0.0 0.0
0.0 0.0 0.0 0.0 0.0 0.0 0.0 0.0 0.0 0.0 0.0 0.0 0.0 0.0 0.0 0.0 0.0 0.0 0.0 0.0 0.0 0.0 0.0 0.0 0.0 0.0 0.0 0.0 0.0 0.0 0.0 0.0 0.0 0.0 0.0 0.0 0.0 0.0 0.0 0.0 0.0 0.0 0.0
0.0 0.0 0.0 0.0 0.0 0.0 0.0 0.0 0.0 0.0 0.0 0.0 0.0 0.0 0.0 0.0 0.0 0.0 0.0 0.0 0.0 0.0 0.0 0.0 0.0 0.0 0.0 0.0 0.0 0.0 0.0 0.0 0.0 0.0 0.0 0.0 0.0 0.0 0.0 0.0 0.0 0.0 0.0
0.0 0.0 0.0 0.0 0.0 0.0 0.0 0.0 0.0 0.0 0.0 0.0 0.0 0.0 0.0 0.0 0.0 0.0 0.0 0.0 0.0 0.0 0.0 0.0 0.0 0.0 0.0 0.0 0.0 0.0 0.0 0.0 0.0 0.0 0.0 0.0 0.0 0.0 0.0 0.0 0.0 0.0 0.0
0.0 0.0 0.0 0.0 0.0 0.0 0.0 0.0 0.0 0.0 0.0 0.0 0.0 0.0 0.0 0.0 0.0 0.0 0.0 0.0 0.0 0.0 0.0 0.0 0.0 0.0 0.0 0.0 0.0 0.0 0.0 0.0 0.0 0.0 0.0 0.0 0.0 0.0 0.0 0.0 0.0 0.0 0.0
0.0 0.0 0.0 0.0 0.0 0.0 0.0 0.0 0.0 0.0 0.0 0.0 0.0 0.0 0.0 0.0 0.0 0.0 0.0 0.0 0.0 0.0 0.0 0.0 0.0 0.0 0.0 0.0 0.0 0.0 0.0 0.0 0.0 0.0 0.0 0.0 0.0 0.0 0.0 0.0 0.0 0.0 0.0
0.0 0.0 0.0 0.0 0.0 0.0 0.0 0.0 0.0 0.0 0.0 0.0 0.0 0.0 0.0 0.0 0.0 0.0 0.0 0.0 0.0 0.0 0.0 0.0 0.0 0.0 0.0 0.0 0.0 0.0 0.0 0.0 0.0 0.0 0.0 0.0 0.0 0.0 0.0 0.0 0.0 0.0 0.0
3.1 1.7 0.5 0.0 0.0 0.0 0.0 0.0 0.0 0.0 0.0 0.0 0.0 0.0 0.0 0.0 0.0 0.0 0.0 0.0 0.0 0.0 0.0 0.0 0.0 0.0 0.0 0.0 0.0 0.0 0.0 0.0 0.0 0.0 0.0 0.0 0.0 0.0 0.1 0.1 0.1 0.0 0.0
0.0 3.1 1.6 1.6 0.9 0.0 0.0 0.0 0.0 0.0 0.0 0.0 0.0 0.0 0.0 0.0 0.0 0.0 0.0 0.0 0.0 0.0 0.0 0.0 0.0 0.0 0.0 0.0 0.0 0.0 0.0 0.0 0.0 0.0 0.0 0.0 0.0 0.2 0.0 0.2 0.3 0.5 0.3
3.1 0.0 1.6 0.8 0.0 0.0 0.0 0.0 0.0 0.0 0.0 0.0 0.0 0.0 0.0 0.0 0.0 0.0 0.0 0.0 0.0 0.0 0.0 0.0 0.0 0.0 0.0 0.0 0.0 0.0 0.0 0.1 0.1 0.1 0.1 0.0 0.0 0.2 0.2 0.3 0.5 0.6 0.7
1.0 1.0 0.9 0.6 0.0 0.0 0.0 0.2 0.2 0.0 0.1 0.0 0.0 0.0 0.0 0.0 0.0 0.0 0.0 0.0 0.0 0.0 0.0 0.0 0.0 0.0 0.0 0.0 0.0 0.0 0.0 0.0 0.4 0.1 0.2 0.1 0.5 0.6 0.5 0.7 0.7 0.7 0.6
0.0 0.3 0.2 0.1 0.0 0.0 0.0 0.0 0.0 0.0 0.0 0.0 0.0 0.0 0.0 0.0 0.0 0.0 0.0 0.0 0.0 0.0 0.0 0.0 0.0 0.0 0.0 0.0 0.0 0.0 0.0 0.0 0.0 0.0 0.0 0.0 0.2 0.2 0.4 0.8 1.1 1.1 0.8
0.0 0.0 0.0 0.0 0.0 0.0 0.0 0.0 0.0 0.0 0.0 0.0 0.0 0.0 0.0 0.0 0.0 0.0 0.0 0.0 0.0 0.0 0.0 0.0 0.0 0.0 0.0 0.0 0.0 0.0 0.0 0.0 0.1 0.1 0.1 0.1 0.1 0.1 0.1 0.1 0.2 0.1 0.2
0.0 0.0 0.0 0.0 0.0 0.0 0.0 0.0 0.0 0.0 0.0 0.0 0.0 0.0 0.0 0.0 0.0 0.0 0.0 0.0 0.0 0.0 0.0 0.0 0.0 0.0 0.0 0.0 0.0 0.0 0.0 0.0 0.0 0.3 0.1 0.0 0.0 0.1 0.0 0.3 0.3 0.2 0.2
0.0 0.0 0.0 0.0 0.0 0.0 0.0 0.0 0.0 0.0 0.0 0.0 0.0 0.0 0.0 0.0 0.0 0.0 0.0 0.0 0.0 0.0 0.0 0.0 0.0 0.0 0.0 0.0 0.0 0.0 0.1 0.3 0.5 0.2 0.2 0.0 0.1 0.4 0.2 0.2 0.3 0.1 0.1
0.1 0.0 0.0 0.0 0.0 0.0 0.1 0.1 0.1 0.2 0.0 0.2 0.0 0.0 0.0 0.0 0.0 0.0 0.0 0.0 0.0 0.0 0.0 0.4 0.0 0.0 0.4 0.7 0.0 0.4 0.5 0.6 0.0 0.5 0.1 0.0 0.4 0.4 0.1 0.0 0.1 0.3 0.4
0.2 0.0 0.5 0.1 0.3 0.4 0.6 0.7 0.7 0.4 0.1 0.4 0.3 0.4 1.4 0.0 0.9 0.9 1.3 1.6 1.2 0.8 1.7 1.8 1.7 2.5 2.5 2.2 1.0 0.5 0.3 0.3 0.7 0.2 0.0 0.0 0.4 0.2 0.1 0.1 0.1 0.0 0.1
2.9 2.3 2.2 2.1 1.8 1.0 1.1 0.8 1.6 0.9 3.6 2.7 3.2 2.9 4.1 4.7 6.1 6.3 5.9 5.2 4.0 3.6 3.8 5.1 4.2 4.3 4.3 2.6 2.2 2.3 2.4 2.2 1.4 2.0 1.8 1.5 0.5 0.2 0.1 0.1 0.1 0.2 0.2
5.1 7.8 2.8 2.8 3.3 2.7 2.9 7.3 6.3 6.6 6.5 7.9 8.6 8.7 9.3 8.5 8.1 8.8 8.1 7.3 7.0 5.9 6.5 5.0 5.1 4.5 3.8 3.7 3.5 4.3 3.0 2.4 2.1 2.2 1.4 1.2 1.7 3.2 4.3 0.8 0.9 1.3 1.7
5.6 5.3 8.6 8.1 6.4 6.7 4.7 7.1 10.5 12.9 13.6 15.3 15.9 11.2 9.9 9.4 10.6 8.9 10.4 11.0 7.6 7.2 6.6 10.2 6.7 6.6 3.3 4.0 6.2 4.0 5.0 2.8 6.6 3.1 3.0 3.9 1.8 2.2 2.3 0.9 1.4 1.9 2.8
5.2 5.3 4.8 6.3 9.1 8.4 8.6 9.3 11.8 13.2 15.3 18.0 15.9 13.1 12.9 13.7 12.7 11.7 11.5 14.9 16.5 12.9 7.9 9.1 9.4 8.6 6.6 10.1 11.5 6.3 9.5 8.2 4.5 4.9 2.8 4.4 5.5 6.2 2.8 3.2 4.5 7.5 3.6
4.0 3.3 3.7 3.6 2.8 2.2 2.1 7.9 12.4 15.1 17.2 17.0 14.1 11.9 10.9 11.0 12.1 11.7 13.1 12.6 13.5 16.9 19.3 17.6 15.7 15.1 14.5 14.6 12.0 11.2 10.9 9.0 7.9 7.1 6.5 6.6 5.8 4.9 7.0 6.0 6.2 7.2 6.3
2.5 1.3 1.2 0.6 0.4 0.4 0.2 1.3 3.5 7.5 11.6 12.6 12.0 10.4 9.5 8.8 7.7 7.9 9.4 10.3 10.6 10.2 10.4 10.8 12.5 14.1 14.7 15.7 15.1 15.8 14.9 13.1 11.9 12.3 11.8 11.2 8.0 6.5 7.3 7.9 9.5 10.8 7.1
1.7 0.6 0.1 0.0 0.3 0.5 0.6 0.1 1.3 2.9 4.2 4.7 5.4 6.0 5.9 6.2 6.0 5.3 5.2 5.1 6.3 6.8 7.8 7.9 7.7 7.6 7.1 8.7 9.1 9.4 8.6 8.2 10.5 10.7 12.0 10.9 13.8 15.8 13.3 19.1 18.1 14.1 18.1
3.2 1.2 0.6 0.5 0.9 0.5 0.3 1.2 1.9 2.5 3.5 4.2 4.4 4.4 4.4 4.0 3.8 4.0 3.5 3.1 4.4 3.1 3.2 4.3 4.3 4.6 6.6 8.0 6.9 6.7 8.2 8.5 9.2 13.8 19.8 19.8 20.0 19.5 19.7 19.2 19.0 18.6 17.5
2.3 1.5 1.5 1.0 1.3 0.1 1.3 1.8 1.6 0.9 1.4 2.1 3.3 2.7 3.3 2.3 2.3 1.6 3.4 3.7 3.3 3.3 2.2 2.0 5.7 6.4 10.8 14.2 13.7 13.4 13.3 13.9 13.3 12.8 12.9 12.8 11.8 11.5 11.5 10.3 10.3 9.4 8.9

GFSMW_prec_snow_171.txt.gz
Snowfall_Accumulation
0.0 0.0 0.0 0.0 0.0 0.0 0.0 0.0 0.0 0.0 0.0 0.0 0.0 0.0 0.0 0.0 0.0 0.0 0.0 0.0 0.0 0.0 0.0 0.0 0.0 0.0 0.0 0.0 0.0 0.0 0.0 0.0 0.0 0.0 0.0 0.0 0.0 0.0 0.0 0.0 0.0 0.0 0.0
0.0 0.0 0.0 0.0 0.0 0.0 0.0 0.0 0.0 0.0 0.0 0.0 0.0 0.0 0.0 0.0 0.0 0.0 0.0 0.0 0.0 0.0 0.0 0.0 0.0 0.0 0.0 0.0 0.0 0.0 0.0 0.0 0.0 0.0 0.0 0.0 0.0 0.0 0.0 0.0 0.0 0.0 0.0
0.0 0.0 0.0 0.0 0.0 0.0 0.0 0.0 0.0 0.0 0.0 0.0 0.0 0.0 0.0 0.0 0.0 0.0 0.0 0.0 0.0 0.0 0.0 0.0 0.0 0.0 0.0 0.0 0.0 0.0 0.0 0.0 0.0 0.0 0.0 0.0 0.0 0.0 0.0 0.0 0.0 0.0 0.0
0.0 0.0 0.0 0.0 0.0 0.0 0.0 0.0 0.0 0.0 0.0 0.0 0.0 0.0 0.0 0.0 0.0 0.0 0.0 0.0 0.0 0.0 0.0 0.0 0.0 0.0 0.0 0.0 0.0 0.0 0.0 0.0 0.0 0.0 0.0 0.0 0.0 0.0 0.0 0.0 0.0 0.0 0.0
0.0 0.0 0.0 0.0 0.0 0.0 0.0 0.0 0.0 0.0 0.0 0.0 0.0 0.0 0.0 0.0 0.0 0.0 0.0 0.0 0.0 0.0 0.0 0.0 0.0 0.0 0.0 0.0 0.0 0.0 0.0 0.0 0.0 0.0 0.0 0.0 0.0 0.0 0.0 0.0 0.0 0.0 0.0
0.0 0.0 0.0 0.0 0.0 0.0 0.0 0.0 0.0 0.0 0.0 0.0 0.0 0.0 0.0 0.0 0.0 0.0 0.0 0.0 0.0 0.0 0.0 0.0 0.0 0.0 0.0 0.0 0.0 0.0 0.0 0.0 0.0 0.0 0.0 0.0 0.0 0.0 0.0 0.0 0.0 0.0 0.0
0.0 0.0 0.0 0.0 0.0 0.0 0.0 0.0 0.0 0.0 0.0 0.0 0.0 0.0 0.0 0.0 0.0 0.0 0.0 0.0 0.0 0.0 0.0 0.0 0.0 0.0 0.0 0.0 0.0 0.0 0.0 0.0 0.0 0.0 0.0 0.0 0.0 0.0 0.0 0.0 0.0 0.0 0.0
3.1 1.7 0.5 0.0 0.0 0.0 0.0 0.0 0.0 0.0 0.0 0.0 0.0 0.0 0.0 0.0 0.0 0.0 0.0 0.0 0.0 0.0 0.0 0.0 0.0 0.0 0.0 0.0 0.0 0.0 0.0 0.0 0.0 0.0 0.0 0.0 0.0 0.0 0.1 0.1 0.1 0.0 0.0
0.0 3.1 1.6 1.6 0.9 0.0 0.0 0.0 0.0 0.0 0.0 0.0 0.0 0.0 0.0 0.0 0.0 0.0 0.0 0.0 0.0 0.0 0.0 0.0 0.0 0.0 0.0 0.0 0.0 0.0 0.0 0.0 0.0 0.0 0.0 0.0 0.0 0.2 0.0 0.2 0.3 0.5 0.3
3.1 0.0 1.6 0.8 0.0 0.0 0.0 0.0 0.0 0.0 0.0 0.0 0.0 0.0 0.0 0.0 0.0 0.0 0.0 0.0 0.0 0.0 0.0 0.0 0.0 0.0 0.0 0.0 0.0 0.0 0.0 0.1 0.1 0.1 0.1 0.0 0.0 0.2 0.2 0.3 0.5 0.6 0.7
1.0 1.0 0.9 0.6 0.0 0.0 0.0 0.2 0.2 0.0 0.1 0.0 0.0 0.0 0.0 0.0 0.0 0.0 0.0 0.0 0.0 0.0 0.0 0.0 0.0 0.0 0.0 0.0 0.0 0.0 0.0 0.0 0.4 0.1 0.2 0.1 0.5 0.6 0.5 0.7 0.7 0.7 0.6
0.0 0.3 0.2 0.1 0.0 0.0 0.0 0.0 0.0 0.0 0.0 0.0 0.0 0.0 0.0 0.0 0.0 0.0 0.0 0.0 0.0 0.0 0.0 0.0 0.0 0.0 0.0 0.0 0.0 0.0 0.0 0.0 0.0 0.0 0.0 0.0 0.2 0.2 0.4 0.8 1.1 1.1 0.8
0.0 0.0 0.0 0.0 0.0 0.0 0.0 0.0 0.0 0.0 0.0 0.0 0.0 0.0 0.0 0.0 0.0 0.0 0.0 0.0 0.0 0.0 0.0 0.0 0.0 0.0 0.0 0.0 0.0 0.0 0.0 0.0 0.1 0.1 0.1 0.1 0.1 0.1 0.1 0.1 0.2 0.1 0.2
0.0 0.0 0.0 0.0 0.0 0.0 0.0 0.0 0.0 0.0 0.0 0.0 0.0 0.0 0.0 0.0 0.0 0.0 0.0 0.0 0.0 0.0 0.0 0.0 0.0 0.0 0.0 0.0 0.0 0.0 0.0 0.0 0.0 0.3 0.1 0.0 0.0 0.1 0.0 0.3 0.3 0.2 0.2
0.0 0.0 0.0 0.0 0.0 0.0 0.0 0.0 0.0 0.0 0.0 0.0 0.0 0.0 0.0 0.0 0.0 0.0 0.0 0.0 0.0 0.0 0.0 0.0 0.0 0.0 0.0 0.0 0.0 0.0 0.1 0.3 0.5 0.2 0.2 0.0 0.1 0.4 0.2 0.2 0.3 0.1 0.1
0.1 0.0 0.0 0.0 0.0 0.0 0.1 0.1 0.1 0.2 0.0 0.2 0.0 0.0 0.0 0.0 0.0 0.0 0.0 0.0 0.0 0.0 0.0 0.4 0.0 0.0 0.4 0.7 0.0 0.4 0.5 0.7 0.0 0.5 0.1 0.0 0.4 0.4 0.1 0.0 0.1 0.3 0.5
0.2 0.0 0.5 0.1 0.3 0.4 0.6 0.7 0.7 0.4 0.1 0.4 0.3 0.4 1.4 0.0 0.9 0.9 1.3 1.6 1.2 0.8 1.7 1.8 1.7 2.5 2.5 2.2 1.0 0.5 0.3 0.3 0.7 0.2 0.0 0.0 0.4 0.2 0.1 0.5 0.3 0.2 0.1
2.9 2.3 2.2 2.1 1.8 1.0 1.1 0.8 1.6 0.9 3.6 2.7 3.2 2.9 4.1 4.7 6.1 6.3 5.9 5.2 4.0 3.6 3.8 5.1 4.2 4.3 4.3 2.9 2.5 2.5 2.6 2.3 1.4 2.0 1.8 1.5 0.5 0.2 0.4 0.3 0.3 0.2 0.2
5.1 7.8 2.8 2.8 3.3 2.7 2.9 7.3 6.3 6.6 6.5 7.9 8.6 8.7 9.3 8.5 8.1 8.8 8.1 7.3 7.0 5.9 6.5 5.0 5.1 4.5 3.8 3.8 3.6 4.3 3.0 2.4 2.1 2.2 1.4 1.2 1.7 3.2 4.3 0.8 0.9 1.4 1.8
5.6 5.3 8.6 8.1 6.4 6.7 4.7 7.1 10.5 12.9 13.6 15.3 15.9 11.2 9.9 9.4 10.6 8.9 10.4 11.0 7.6 7.2 6.6 10.2 6.7 6.7 3.3 4.0 6.2 4.0 5.0 2.9 6.7 3.2 3.0 3.9 1.8 2.2 2.3 0.9 1.4 2.0 2.9
5.2 5.3 4.8 6.3 9.1 8.4 8.6 9.3 11.8 13.2 15.3 18.0 15.9 13.1 12.9 13.7 12.7 11.7 11.5 14.9 16.5 12.9 7.9 9.1 9.5 8.7 6.7 10.2 11.5 6.4 9.6 8.2 4.5 4.9 2.8 4.4 5.5 6.2 2.8 3.3 4.5 7.5 3.6
4.0 3.3 3.7 3.6 2.8 2.2 2.1 7.9 12.4 15.1 17.2 17.0 14.1 11.9 10.9 11.0 12.1 11.7 13.1 12.6 13.5 16.9 19.3 17.6 15.7 15.2 14.7 14.7 12.1 11.3 11.0 9.1 7.9 7.1 6.7 6.8 5.9 4.9 7.1 6.1 6.2 7.2 6.3
2.5 1.3 1.2 0.6 0.4 0.4 0.2 1.3 3.5 7.5 11.6 12.6 12.0 10.4 9.5 8.8 7.7 7.9 9.4 10.3 10.6 10.2 10.4 10.8 12.5 14.1 14.8 15.8 15.2 16.0 15.1 13.3 12.1 12.5 12.0 11.2 8.0 6.5 7.4 8.0 9.5 10.8 7.1
1.7 0.6 0.1 0.0 0.3 0.5 0.6 0.1 1.3 2.9 4.2 4.7 5.4 6.0 5.9 6.2 6.0 5.3 5.2 5.1 6.3 6.8 7.9 7.9 7.8 7.6 7.2 8.9 9.3 9.7 8.9 8.5 10.8 11.1 12.4 10.9 13.8 15.9 13.4 19.1 18.1 14.1 18.1
3.2 1.2 0.6 0.5 0.9 0.5 0.3 1.2 1.9 2.5 3.5 4.2 4.4 4.4 4.4 4.0 3.8 4.0 3.5 3.1 4.4 3.1 3.2 4.3 4.3 4.6 6.8 8.2 7.1 6.9 8.4 8.6 9.4 14.0 20.0 19.9 20.0 19.6 19.7 19.2 19.0 18.6 17.5
2.3 1.5 1.5 1.0 1.3 0.1 1.3 1.8 1.6 0.9 1.4 2.1 3.3 2.7 3.3 2.3 2.3 1.6 3.4 3.7 3.3 3.3 2.2 2.0 5.7 6.4 10.8 14.5 14.1 13.7 13.4 13.9 13.3 12.8 12.9 12.9 11.8 11.5 11.5 10.3 10.3 9.4 8.9

GFSMW_prec_snow_174.txt.gz
Snowfall_Accumulation
0.0 0.0 0.0 0.0 0.0 0.0 0.0 0.0 0.0 0.0 0.0 0.0 0.0 0.0 0.0 0.0 0.0 0.0 0.0 0.0 0.0 0.0 0.0 0.0 0.0 0.0 0.0 0.0 0.0 0.0 0.0 0.0 0.0 0.0 0.0 0.0 0.0 0.0 0.0 0.0 0.0 0.0 0.0
0.0 0.0 0.0 0.0 0.0 0.0 0.0 0.0 0.0 0.0 0.0 0.0 0.0 0.0 0.0 0.0 0.0 0.0 0.0 0.0 0.0 0.0 0.0 0.0 0.0 0.0 0.0 0.0 0.0 0.0 0.0 0.0 0.0 0.0 0.0 0.0 0.0 0.0 0.0 0.0 0.0 0.0 0.0
0.0 0.0 0.0 0.0 0.0 0.0 0.0 0.0 0.0 0.0 0.0 0.0 0.0 0.0 0.0 0.0 0.0 0.0 0.0 0.0 0.0 0.0 0.0 0.0 0.0 0.0 0.0 0.0 0.0 0.0 0.0 0.0 0.0 0.0 0.0 0.0 0.0 0.0 0.0 0.0 0.0 0.0 0.0
0.0 0.0 0.0 0.0 0.0 0.0 0.0 0.0 0.0 0.0 0.0 0.0 0.0 0.0 0.0 0.0 0.0 0.0 0.0 0.0 0.0 0.0 0.0 0.0 0.0 0.0 0.0 0.0 0.0 0.0 0.0 0.0 0.0 0.0 0.0 0.0 0.0 0.0 0.0 0.0 0.0 0.0 0.0
0.0 0.0 0.0 0.0 0.0 0.0 0.0 0.0 0.0 0.0 0.0 0.0 0.0 0.0 0.0 0.0 0.0 0.0 0.0 0.0 0.0 0.0 0.0 0.0 0.0 0.0 0.0 0.0 0.0 0.0 0.0 0.0 0.0 0.0 0.0 0.0 0.0 0.0 0.0 0.0 0.0 0.0 0.0
0.0 0.0 0.0 0.0 0.0 0.0 0.0 0.0 0.0 0.0 0.0 0.0 0.0 0.0 0.0 0.0 0.0 0.0 0.0 0.0 0.0 0.0 0.0 0.0 0.0 0.0 0.0 0.0 0.0 0.0 0.0 0.0 0.0 0.0 0.0 0.0 0.0 0.0 0.0 0.0 0.0 0.0 0.0
0.0 0.0 0.0 0.0 0.0 0.0 0.0 0.0 0.0 0.0 0.0 0.0 0.0 0.0 0.0 0.0 0.0 0.0 0.0 0.0 0.0 0.0 0.0 0.0 0.0 0.0 0.0 0.0 0.0 0.0 0.0 0.0 0.0 0.0 0.0 0.0 0.0 0.0 0.0 0.0 0.0 0.0 0.0
3.1 1.7 0.5 0.0 0.0 0.0 0.0 0.0 0.0 0.0 0.0 0.0 0.0 0.0 0.0 0.0 0.0 0.0 0.0 0.0 0.0 0.0 0.0 0.0 0.0 0.0 0.0 0.0 0.0 0.0 0.0 0.0 0.0 0.0 0.0 0.0 0.0 0.0 0.1 0.1 0.1 0.0 0.0
0.0 3.1 1.6 1.6 0.9 0.0 0.0 0.0 0.0 0.0 0.0 0.0 0.0 0.0 0.0 0.0 0.0 0.0 0.0 0.0 0.0 0.0 0.0 0.0 0.0 0.0 0.0 0.0 0.0 0.0 0.0 0.0 0.0 0.0 0.0 0.0 0.0 0.2 0.0 0.2 0.3 0.5 0.3
3.1 0.0 1.6 0.8 0.0 0.0 0.0 0.0 0.0 0.0 0.0 0.0 0.0 0.0 0.0 0.0 0.0 0.0 0.0 0.0 0.0 0.0 0.0 0.0 0.0 0.0 0.0 0.0 0.0 0.0 0.0 0.1 0.1 0.1 0.1 0.0 0.0 0.2 0.2 0.3 0.5 0.6 0.7
1.0 1.0 0.9 0.6 0.0 0.0 0.0 0.2 0.2 0.0 0.1 0.0 0.0 0.0 0.0 0.0 0.0 0.0 0.0 0.0 0.0 0.0 0.0 0.0 0.0 0.0 0.0 0.0 0.0 0.0 0.0 0.0 0.4 0.1 0.2 0.1 0.5 0.6 0.5 0.7 0.7 0.7 0.6
0.0 0.3 0.2 0.1 0.0 0.0 0.0 0.0 0.0 0.0 0.0 0.0 0.0 0.0 0.0 0.0 0.0 0.0 0.0 0.0 0.0 0.0 0.0 0.0 0.0 0.0 0.0 0.0 0.0 0.0 0.0 0.0 0.0 0.0 0.0 0.0 0.2 0.2 0.4 0.8 1.1 1.1 0.8
0.0 0.0 0.0 0.0 0.0 0.0 0.0 0.0 0.0 0.0 0.0 0.0 0.0 0.0 0.0 0.0 0.0 0.0 0.0 0.0 0.0 0.0 0.0 0.0 0.0 0.0 0.0 0.0 0.0 0.0 0.0 0.0 0.1 0.1 0.1 0.1 0.1 0.1 0.1 0.1 0.2 0.1 0.2
0.0 0.0 0.0 0.0 0.0 0.0 0.0 0.0 0.0 0.0 0.0 0.0 0.0 0.0 0.0 0.0 0.0 0.0 0.0 0.0 0.0 0.0 0.0 0.0 0.0 0.0 0.0 0.0 0.0 0.0 0.0 0.0 0.0 0.3 0.1 0.0 0.0 0.1 0.0 0.3 0.3 0.2 0.2
0.0 0.0 0.0 0.0 0.0 0.0 0.0 0.0 0.0 0.0 0.0 0.0 0.0 0.0 0.0 0.0 0.0 0.0 0.0 0.0 0.0 0.0 0.0 0.0 0.0 0.0 0.0 0.0 0.0 0.0 0.1 0.3 0.5 0.2 0.2 0.0 0.1 0.4 0.2 0.2 0.3 0.1 0.1
0.1 0.0 0.0 0.0 0.0 0.0 0.1 0.1 0.1 0.2 0.0 0.2 0.0 0.0 0.0 0.0 0.0 0.0 0.0 0.0 0.0 0.0 0.0 0.4 0.0 0.0 0.4 0.7 0.0 0.4 0.5 0.7 0.0 0.5 0.1 0.0 0.4 0.4 0.1 0.0 0.1 0.3 0.5
0.2 0.0 0.5 0.1 0.3 0.4 0.6 0.7 0.7 0.4 0.1 0.4 0.3 0.4 1.4 0.0 0.9 0.9 1.3 1.6 1.2 0.8 1.7 1.8 1.7 2.5 2.5 2.2 1.0 0.5 0.3 0.3 0.7 0.2 0.0 0.0 0.4 0.2 0.1 0.5 0.3 0.2 0.1
2.9 2.3 2.2 2.1 1.8 1.0 1.1 0.8 1.6 0.9 3.6 2.7 3.2 2.9 4.1 4.7 6.1 6.3 5.9 5.2 4.0 3.6 3.8 5.1 4.2 4.3 4.3 2.9 2.5 2.5 2.6 2.3 1.4 2.0 1.8 1.5 0.5 0.2 0.4 0.3 0.3 0.3 0.2
5.1 7.8 2.8 2.8 3.3 2.7 2.9 7.3 6.3 6.6 6.5 7.9 8.6 8.7 9.3 8.5 8.1 8.8 8.1 7.3 7.0 5.9 6.5 5.0 5.1 4.5 3.8 3.8 3.6 4.3 3.0 2.4 2.2 2.2 1.4 1.2 1.7 3.2 4.3 0.8 0.9 1.5 2.0
5.6 5.3 8.6 8.1 6.4 6.7 4.7 7.1 10.5 12.9 13.6 15.3 15.9 11.2 9.9 9.4 10.6 8.9 10.4 11.0 7.6 7.2 6.6 10.2 6.7 6.7 3.3 4.0 6.2 4.0 5.0 2.9 6.7 3.2 3.0 3.9 1.8 2.2 2.3 0.9 1.4 2.1 3.0
5.2 5.3 4.8 6.3 9.1 8.4 8.6 9.3 11.8 13.2 15.3 18.0 15.9 13.1 12.9 13.7 12.7 11.7 11.5 14.9 16.5 12.9 7.9 9.1 9.5 8.7 6.7 10.2 11.6 6.4 9.7 8.3 4.5 4.9 2.8 4.4 5.5 6.2 2.8 3.3 4.5 7.5 3.6
4.0 3.3 3.7 3.6 2.8 2.2 2.1 7.9 12.4 15.1 17.2 17.0 14.1 11.9 10.9 11.0 12.1 11.7 13.1 12.6 13.5 16.9 19.3 17.7 15.8 15.3 14.7 14.7 12.1 11.3 11.1 9.2 7.9 7.1 6.7 6.8 5.9 4.9 7.1 6.1 6.2 7.2 6.3
2.5 1.3 1.2 0.6 0.4 0.4 0.2 1.3 3.5 7.5 11.6 12.6 12.0 10.4 9.5 8.8 7.7 7.9 9.4 10.3 10.6 10.2 10.5 10.8 12.5 14.2 14.9 15.9 15.2 16.0 15.2 13.5 12.3 12.6 12.2 11.4 8.1 6.5 7.4 8.0 9.5 10.8 7.1
1.7 0.6 0.1 0.0 0.3 0.5 0.6 0.1 1.3 2.9 4.2 4.7 5.4 6.0 5.9 6.2 6.0 5.3 5.2 5.1 6.3 6.8 7.9 7.9 7.8 7.6 7.2 9.0 9.4 9.7 9.1 8.8 11.1 11.4 12.9 11.1 13.9 15.9 13.4 19.1 18.1 14.1 18.1
3.2 1.2 0.6 0.5 0.9 0.5 0.3 1.2 1.9 2.5 3.5 4.2 4.4 4.4 4.4 4.0 3.8 4.0 3.5 3.1 4.4 3.1 3.2 4.3 4.3 4.6 6.9 8.3 7.2 6.9 8.6 8.9 9.7 14.3 20.3 20.1 20.1 19.7 19.7 19.2 19.0 18.6 17.5
2.3 1.5 1.5 1.0 1.3 0.1 1.3 1.8 1.6 0.9 1.4 2.1 3.3 2.7 3.3 2.3 2.3 1.6 3.5 3.7 3.3 3.3 2.2 2.0 5.7 6.4 10.8 14.5 14.1 13.7 13.4 13.9 13.4 13.0 13.0 13.0 11.9 11.6 11.5 10.3 10.3 9.4 8.9

GFSMW_prec_snow_177.txt.gz
Snowfall_Accumulation
0.0 0.0 0.0 0.0 0.0 0.0 0.0 0.0 0.0 0.0 0.0 0.0 0.0 0.0 0.0 0.0 0.0 0.0 0.0 0.0 0.0 0.0 0.0 0.0 0.0 0.0 0.0 0.0 0.0 0.0 0.0 0.0 0.0 0.0 0.0 0.0 0.0 0.0 0.0 0.0 0.0 0.0 0.0
0.0 0.0 0.0 0.0 0.0 0.0 0.0 0.0 0.0 0.0 0.0 0.0 0.0 0.0 0.0 0.0 0.0 0.0 0.0 0.0 0.0 0.0 0.0 0.0 0.0 0.0 0.0 0.0 0.0 0.0 0.0 0.0 0.0 0.0 0.0 0.0 0.0 0.0 0.0 0.0 0.0 0.0 0.0
0.0 0.0 0.0 0.0 0.0 0.0 0.0 0.0 0.0 0.0 0.0 0.0 0.0 0.0 0.0 0.0 0.0 0.0 0.0 0.0 0.0 0.0 0.0 0.0 0.0 0.0 0.0 0.0 0.0 0.0 0.0 0.0 0.0 0.0 0.0 0.0 0.0 0.0 0.0 0.0 0.0 0.0 0.0
0.0 0.0 0.0 0.0 0.0 0.0 0.0 0.0 0.0 0.0 0.0 0.0 0.0 0.0 0.0 0.0 0.0 0.0 0.0 0.0 0.0 0.0 0.0 0.0 0.0 0.0 0.0 0.0 0.0 0.0 0.0 0.0 0.0 0.0 0.0 0.0 0.0 0.0 0.0 0.0 0.0 0.0 0.0
0.0 0.0 0.0 0.0 0.0 0.0 0.0 0.0 0.0 0.0 0.0 0.0 0.0 0.0 0.0 0.0 0.0 0.0 0.0 0.0 0.0 0.0 0.0 0.0 0.0 0.0 0.0 0.0 0.0 0.0 0.0 0.0 0.0 0.0 0.0 0.0 0.0 0.0 0.0 0.0 0.0 0.0 0.0
0.0 0.0 0.0 0.0 0.0 0.0 0.0 0.0 0.0 0.0 0.0 0.0 0.0 0.0 0.0 0.0 0.0 0.0 0.0 0.0 0.0 0.0 0.0 0.0 0.0 0.0 0.0 0.0 0.0 0.0 0.0 0.0 0.0 0.0 0.0 0.0 0.0 0.0 0.0 0.0 0.0 0.0 0.0
0.0 0.0 0.0 0.0 0.0 0.0 0.0 0.0 0.0 0.0 0.0 0.0 0.0 0.0 0.0 0.0 0.0 0.0 0.0 0.0 0.0 0.0 0.0 0.0 0.0 0.0 0.0 0.0 0.0 0.0 0.0 0.0 0.0 0.0 0.0 0.0 0.0 0.0 0.0 0.0 0.0 0.0 0.0
3.1 1.7 0.5 0.0 0.0 0.0 0.0 0.0 0.0 0.0 0.0 0.0 0.0 0.0 0.0 0.0 0.0 0.0 0.0 0.0 0.0 0.0 0.0 0.0 0.0 0.0 0.0 0.0 0.0 0.0 0.0 0.0 0.0 0.0 0.0 0.0 0.0 0.0 0.1 0.1 0.1 0.0 0.0
0.0 3.1 1.6 1.6 0.9 0.0 0.0 0.0 0.0 0.0 0.0 0.0 0.0 0.0 0.0 0.0 0.0 0.0 0.0 0.0 0.0 0.0 0.0 0.0 0.0 0.0 0.0 0.0 0.0 0.0 0.0 0.0 0.0 0.0 0.0 0.0 0.0 0.2 0.0 0.2 0.3 0.5 0.3
3.1 0.0 1.6 0.8 0.0 0.0 0.0 0.0 0.0 0.0 0.0 0.0 0.0 0.0 0.0 0.0 0.0 0.0 0.0 0.0 0.0 0.0 0.0 0.0 0.0 0.0 0.0 0.0 0.0 0.0 0.0 0.1 0.1 0.1 0.1 0.0 0.0 0.2 0.2 0.3 0.5 0.6 0.7
1.0 1.0 0.9 0.6 0.0 0.0 0.0 0.2 0.2 0.0 0.1 0.0 0.0 0.0 0.0 0.0 0.0 0.0 0.0 0.0 0.0 0.0 0.0 0.0 0.0 0.0 0.0 0.0 0.0 0.0 0.0 0.0 0.4 0.1 0.2 0.1 0.5 0.6 0.5 0.7 0.7 0.7 0.6
0.0 0.3 0.2 0.1 0.0 0.0 0.0 0.0 0.0 0.0 0.0 0.0 0.0 0.0 0.0 0.0 0.0 0.0 0.0 0.0 0.0 0.0 0.0 0.0 0.0 0.0 0.0 0.0 0.0 0.0 0.0 0.0 0.0 0.0 0.0 0.0 0.2 0.2 0.4 0.8 1.1 1.1 0.8
0.0 0.0 0.0 0.0 0.0 0.0 0.0 0.0 0.0 0.0 0.0 0.0 0.0 0.0 0.0 0.0 0.0 0.0 0.0 0.0 0.0 0.0 0.0 0.0 0.0 0.0 0.0 0.0 0.0 0.0 0.0 0.0 0.1 0.1 0.1 0.1 0.1 0.1 0.1 0.1 0.2 0.1 0.2
0.0 0.0 0.0 0.0 0.0 0.0 0.0 0.0 0.0 0.0 0.0 0.0 0.0 0.0 0.0 0.0 0.0 0.0 0.0 0.0 0.0 0.0 0.0 0.0 0.0 0.0 0.0 0.0 0.0 0.0 0.0 0.0 0.0 0.3 0.1 0.0 0.0 0.1 0.0 0.3 0.3 0.2 0.2
0.0 0.0 0.0 0.0 0.0 0.0 0.0 0.0 0.0 0.0 0.0 0.0 0.0 0.0 0.0 0.0 0.0 0.0 0.0 0.0 0.0 0.0 0.0 0.0 0.0 0.0 0.0 0.0 0.0 0.0 0.1 0.3 0.5 0.2 0.2 0.0 0.1 0.4 0.2 0.2 0.3 0.1 0.1
0.1 0.0 0.0 0.0 0.0 0.0 0.1 0.1 0.1 0.2 0.0 0.2 0.0 0.0 0.0 0.0 0.0 0.0 0.0 0.0 0.0 0.0 0.0 0.4 0.0 0.0 0.4 0.7 0.0 0.4 0.5 0.7 0.0 0.5 0.1 0.0 0.4 0.4 0.1 0.0 0.1 0.3 0.5
0.2 0.0 0.5 0.1 0.3 0.4 0.6 0.7 0.7 0.4 0.1 0.4 0.3 0.4 1.4 0.0 0.9 0.9 1.3 1.6 1.2 0.8 1.7 1.8 1.7 2.5 2.5 2.2 1.0 0.5 0.3 0.3 0.7 0.2 0.0 0.0 0.4 0.2 0.1 0.5 0.3 0.2 0.1
2.9 2.3 2.2 2.1 1.8 1.0 1.1 0.8 1.6 0.9 3.6 2.7 3.2 2.9 4.1 4.7 6.1 6.3 5.9 5.2 4.0 3.6 3.8 5.1 4.2 4.3 4.3 2.9 2.5 2.5 2.6 2.3 1.4 2.0 1.8 1.5 0.5 0.2 0.4 0.3 0.3 0.3 0.2
5.1 7.8 2.8 2.8 3.3 2.7 2.9 7.3 6.3 6.6 6.5 7.9 8.6 8.7 9.3 8.5 8.1 8.8 8.1 7.3 7.0 5.9 6.5 5.0 5.1 4.5 3.8 3.8 3.6 4.3 3.0 2.4 2.2 2.2 1.4 1.2 1.7 3.2 4.3 0.8 0.9 1.7 2.1
5.6 5.3 8.6 8.1 6.4 6.7 4.7 7.1 10.5 12.9 13.6 15.3 15.9 11.2 9.9 9.4 10.6 8.9 10.4 11.0 7.6 7.2 6.6 10.2 6.7 6.7 3.3 4.0 6.2 4.0 5.0 3.0 6.8 3.2 3.0 3.9 1.8 2.2 2.3 0.9 1.4 2.2 3.1
5.2 5.3 4.8 6.3 9.1 8.4 8.6 9.3 11.8 13.2 15.3 18.0 15.9 13.1 12.9 13.7 12.7 11.7 11.5 14.9 16.5 12.9 7.9 9.1 9.5 8.7 6.7 10.2 11.6 6.4 9.7 8.3 4.5 4.9 2.8 4.4 5.5 6.2 2.8 3.3 4.5 7.6 3.6
4.0 3.3 3.7 3.6 2.8 2.2 2.1 7.9 12.4 15.1 17.2 17.0 14.1 11.9 10.9 11.0 12.1 11.7 13.1 12.6 13.5 16.9 19.3 17.7 15.8 15.3 14.7 14.7 12.1 11.3 11.1 9.2 8.0 7.2 6.8 6.8 5.9 4.9 7.1 6.1 6.2 7.2 6.3
2.5 1.3 1.2 0.6 0.4 0.4 0.2 1.3 3.5 7.5 11.6 12.6 12.0 10.4 9.5 8.8 7.7 7.9 9.4 10.3 10.6 10.2 10.5 10.8 12.6 14.2 14.9 16.0 15.2 16.0 15.2 13.5 12.4 12.8 12.4 11.4 8.1 6.5 7.5 8.0 9.5 10.8 7.1
1.7 0.6 0.1 0.0 0.3 0.5 0.6 0.1 1.3 2.9 4.2 4.7 5.4 6.0 5.9 6.2 6.0 5.3 5.2 5.1 6.3 6.8 7.9 7.9 7.8 7.6 7.2 9.0 9.4 9.7 9.1 8.8 11.1 11.4 12.9 11.1 14.1 16.3 13.4 19.1 18.1 14.1 18.1
3.2 1.2 0.6 0.5 0.9 0.5 0.3 1.2 1.9 2.5 3.5 4.2 4.4 4.4 4.4 4.0 3.8 4.0 3.5 3.1 4.4 3.1 3.2 4.3 4.3 4.6 6.9 8.3 7.2 6.9 8.6 9.0 9.9 14.6 20.5 20.3 20.3 19.9 19.8 19.3 19.0 18.6 17.5
2.3 1.5 1.5 1.0 1.3 0.1 1.3 1.8 1.6 0.9 1.4 2.1 3.3 2.7 3.3 2.3 2.3 1.6 3.5 3.7 3.3 3.3 2.2 2.0 5.7 6.4 10.8 14.5 14.1 13.7 13.4 13.9 13.4 13.1 13.2 13.2 12.1 11.8 11.7 10.5 10.3 9.4 8.9

GFSMW_prec_snow_183.txt.gz
Snowfall_Accumulation
0.0 0.0 0.0 0.0 0.0 0.0 0.0 0.0 0.0 0.0 0.0 0.0 0.0 0.0 0.0 0.0 0.0 0.0 0.0 0.0 0.0 0.0 0.0 0.0 0.0 0.0 0.0 0.0 0.0 0.0 0.0 0.0 0.0 0.0 0.0 0.0 0.0 0.0 0.0 0.0 0.0 0.0 0.0
0.0 0.0 0.0 0.0 0.0 0.0 0.0 0.0 0.0 0.0 0.0 0.0 0.0 0.0 0.0 0.0 0.0 0.0 0.0 0.0 0.0 0.0 0.0 0.0 0.0 0.0 0.0 0.0 0.0 0.0 0.0 0.0 0.0 0.0 0.0 0.0 0.0 0.0 0.0 0.0 0.0 0.0 0.0
0.0 0.0 0.0 0.0 0.0 0.0 0.0 0.0 0.0 0.0 0.0 0.0 0.0 0.0 0.0 0.0 0.0 0.0 0.0 0.0 0.0 0.0 0.0 0.0 0.0 0.0 0.0 0.0 0.0 0.0 0.0 0.0 0.0 0.0 0.0 0.0 0.0 0.0 0.0 0.0 0.0 0.0 0.0
0.0 0.0 0.0 0.0 0.0 0.0 0.0 0.0 0.0 0.0 0.0 0.0 0.0 0.0 0.0 0.0 0.0 0.0 0.0 0.0 0.0 0.0 0.0 0.0 0.0 0.0 0.0 0.0 0.0 0.0 0.0 0.0 0.0 0.0 0.0 0.0 0.0 0.0 0.0 0.0 0.0 0.0 0.0
0.0 0.0 0.0 0.0 0.0 0.0 0.0 0.0 0.0 0.0 0.0 0.0 0.0 0.0 0.0 0.0 0.0 0.0 0.0 0.0 0.0 0.0 0.0 0.0 0.0 0.0 0.0 0.0 0.0 0.0 0.0 0.0 0.0 0.0 0.0 0.0 0.0 0.0 0.0 0.0 0.0 0.0 0.0
0.0 0.0 0.0 0.0 0.0 0.0 0.0 0.0 0.0 0.0 0.0 0.0 0.0 0.0 0.0 0.0 0.0 0.0 0.0 0.0 0.0 0.0 0.0 0.0 0.0 0.0 0.0 0.0 0.0 0.0 0.0 0.0 0.0 0.0 0.0 0.0 0.0 0.0 0.0 0.0 0.0 0.0 0.0
0.0 0.0 0.0 0.0 0.0 0.0 0.0 0.0 0.0 0.0 0.0 0.0 0.0 0.0 0.0 0.0 0.0 0.0 0.0 0.0 0.0 0.0 0.0 0.0 0.0 0.0 0.0 0.0 0.0 0.0 0.0 0.0 0.0 0.0 0.0 0.0 0.0 0.0 0.0 0.0 0.0 0.0 0.0
3.1 1.7 0.5 0.0 0.0 0.0 0.0 0.0 0.0 0.0 0.0 0.0 0.0 0.0 0.0 0.0 0.0 0.0 0.0 0.0 0.0 0.0 0.0 0.0 0.0 0.0 0.0 0.0 0.0 0.0 0.0 0.0 0.0 0.0 0.0 0.0 0.0 0.0 0.1 0.1 0.1 0.0 0.0
0.0 3.1 1.6 1.6 0.9 0.0 0.0 0.0 0.0 0.0 0.0 0.0 0.0 0.0 0.0 0.0 0.0 0.0 0.0 0.0 0.0 0.0 0.0 0.0 0.0 0.0 0.0 0.0 0.0 0.0 0.0 0.0 0.0 0.0 0.0 0.0 0.0 0.2 0.0 0.2 0.3 0.5 0.3
3.1 0.0 1.6 0.8 0.0 0.0 0.0 0.0 0.0 0.0 0.0 0.0 0.0 0.0 0.0 0.0 0.0 0.0 0.0 0.0 0.0 0.0 0.0 0.0 0.0 0.0 0.0 0.0 0.0 0.0 0.0 0.1 0.1 0.1 0.1 0.0 0.0 0.2 0.2 0.3 0.5 0.6 0.7
1.0 1.0 0.9 0.6 0.0 0.0 0.0 0.2 0.2 0.0 0.1 0.0 0.0 0.0 0.0 0.0 0.0 0.0 0.0 0.0 0.0 0.0 0.0 0.0 0.0 0.0 0.0 0.0 0.0 0.0 0.0 0.0 0.4 0.1 0.2 0.1 0.5 0.6 0.5 0.7 0.7 0.7 0.6
0.0 0.3 0.2 0.1 0.0 0.0 0.0 0.0 0.0 0.0 0.0 0.0 0.0 0.0 0.0 0.0 0.0 0.0 0.0 0.0 0.0 0.0 0.0 0.0 0.0 0.0 0.0 0.0 0.0 0.0 0.0 0.0 0.0 0.0 0.0 0.0 0.2 0.2 0.4 0.8 1.1 1.1 0.8
0.0 0.0 0.0 0.0 0.0 0.0 0.0 0.0 0.0 0.0 0.0 0.0 0.0 0.0 0.0 0.0 0.0 0.0 0.0 0.0 0.0 0.0 0.0 0.0 0.0 0.0 0.0 0.0 0.0 0.0 0.0 0.0 0.1 0.1 0.1 0.1 0.1 0.1 0.1 0.1 0.2 0.1 0.2
0.0 0.0 0.0 0.0 0.0 0.0 0.0 0.0 0.0 0.0 0.0 0.0 0.0 0.0 0.0 0.0 0.0 0.0 0.0 0.0 0.0 0.0 0.0 0.0 0.0 0.0 0.0 0.0 0.0 0.0 0.0 0.0 0.0 0.3 0.1 0.0 0.0 0.1 0.0 0.3 0.3 0.2 0.2
0.0 0.0 0.0 0.0 0.0 0.0 0.0 0.0 0.0 0.0 0.0 0.0 0.0 0.0 0.0 0.0 0.0 0.0 0.0 0.0 0.0 0.0 0.0 0.0 0.0 0.0 0.0 0.0 0.0 0.0 0.1 0.3 0.5 0.2 0.2 0.0 0.1 0.4 0.2 0.2 0.3 0.1 0.1
0.1 0.0 0.0 0.0 0.0 0.0 0.1 0.1 0.1 0.2 0.0 0.2 0.0 0.0 0.0 0.0 0.0 0.0 0.0 0.0 0.0 0.0 0.0 0.4 0.0 0.0 0.4 0.7 0.0 0.4 0.5 0.7 0.0 0.5 0.1 0.0 0.4 0.4 0.1 0.0 0.1 0.3 0.5
0.2 0.0 0.5 0.1 0.3 0.4 0.6 0.7 0.7 0.4 0.1 0.4 0.3 0.4 1.4 0.0 0.9 0.9 1.3 1.6 1.2 0.8 1.7 1.8 1.7 2.5 2.5 2.2 1.0 0.5 0.3 0.3 0.7 0.2 0.0 0.0 0.4 0.2 0.1 0.5 0.3 0.2 0.1
2.9 2.3 2.2 2.1 1.8 1.0 1.1 0.8 1.6 0.9 3.6 2.7 3.2 2.9 4.1 4.7 6.1 6.3 5.9 5.2 4.0 3.6 3.8 5.1 4.2 4.3 4.3 2.9 2.5 2.5 2.6 2.3 1.4 2.0 1.8 1.5 0.5 0.2 0.4 0.3 0.3 0.3 0.2
5.1 7.8 2.8 2.8 3.3 2.7 2.9 7.3 6.3 6.6 6.5 7.9 8.6 8.7 9.3 8.5 8.1 8.8 8.1 7.3 7.0 5.9 6.5 5.0 5.1 4.5 3.8 3.8 3.6 4.3 3.0 2.4 2.2 2.2 1.5 1.3 1.7 3.2 4.3 0.8 0.9 1.7 2.1
5.6 5.3 8.6 8.1 6.4 6.7 4.7 7.1 10.5 12.9 13.6 15.3 15.9 11.2 9.9 9.4 10.6 8.9 10.4 11.0 7.6 7.2 6.6 10.2 6.7 6.7 3.3 4.0 6.2 4.0 5.0 3.0 6.8 3.2 3.0 3.9 1.8 2.2 2.3 0.9 1.4 2.4 3.1
5.2 5.3 4.8 6.3 9.1 8.4 8.6 9.3 11.8 13.2 15.3 18.0 15.9 13.1 12.9 13.7 12.7 11.7 11.5 14.9 16.5 12.9 7.9 9.1 9.5 8.7 6.7 10.2 11.6 6.4 9.7 8.3 4.5 4.9 2.8 4.4 5.5 6.2 2.8 3.3 4.5 7.7 3.6
4.0 3.3 3.7 3.6 2.8 2.2 2.1 7.9 12.4 15.1 17.2 17.0 14.1 11.9 10.9 11.0 12.1 11.7 13.1 12.6 13.5 16.9 19.3 17.7 15.8 15.3 14.7 14.7 12.1 11.3 11.1 9.2 8.0 7.2 6.8 6.8 5.9 4.9 7.1 6.1 6.2 7.2 6.3
2.5 1.3 1.2 0.6 0.4 0.4 0.2 1.3 3.5 7.5 11.6 12.6 12.0 10.4 9.5 8.8 7.7 7.9 9.4 10.3 10.6 10.2 10.5 10.8 12.6 14.2 15.1 16.0 15.2 16.0 15.2 13.5 12.5 12.8 12.4 11.4 8.1 6.5 7.5 8.0 9.5 10.8 7.1
1.7 0.6 0.1 0.0 0.3 0.5 0.6 0.1 1.3 2.9 4.2 4.7 5.4 6.0 5.9 6.2 6.0 5.3 5.2 5.1 6.3 6.8 7.9 7.9 7.8 7.7 7.4 9.0 9.4 9.7 9.1 8.8 11.1 11.4 12.9 11.1 14.2 16.3 13.4 19.1 18.1 14.1 18.3
3.2 1.2 0.6 0.5 0.9 0.5 0.3 1.2 1.9 2.5 3.5 4.2 4.4 4.4 4.4 4.0 3.8 4.0 3.5 3.1 4.4 3.1 3.2 4.3 4.3 4.6 7.0 8.3 7.2 6.9 8.6 9.1 9.9 14.6 20.5 20.3 20.3 19.9 19.8 19.3 19.0 18.6 17.5
2.3 1.5 1.5 1.0 1.3 0.1 1.3 1.8 1.6 0.9 1.4 2.1 3.3 2.7 3.3 2.3 2.3 1.6 3.5 3.8 3.3 3.3 2.2 2.0 5.7 6.4 10.8 14.5 14.1 13.7 13.4 14.0 13.4 13.1 13.2 13.2 12.1 11.8 11.7 10.5 10.3 9.4 9.0

GFSMW_prec_snow_186.txt.gz
Snowfall_Accumulation
0.0 0.0 0.0 0.0 0.0 0.0 0.0 0.0 0.0 0.0 0.0 0.0 0.0 0.0 0.0 0.0 0.0 0.0 0.0 0.0 0.0 0.0 0.0 0.0 0.0 0.0 0.0 0.0 0.0 0.0 0.0 0.0 0.0 0.0 0.0 0.0 0.0 0.0 0.0 0.0 0.0 0.0 0.0
0.0 0.0 0.0 0.0 0.0 0.0 0.0 0.0 0.0 0.0 0.0 0.0 0.0 0.0 0.0 0.0 0.0 0.0 0.0 0.0 0.0 0.0 0.0 0.0 0.0 0.0 0.0 0.0 0.0 0.0 0.0 0.0 0.0 0.0 0.0 0.0 0.0 0.0 0.0 0.0 0.0 0.0 0.0
0.0 0.0 0.0 0.0 0.0 0.0 0.0 0.0 0.0 0.0 0.0 0.0 0.0 0.0 0.0 0.0 0.0 0.0 0.0 0.0 0.0 0.0 0.0 0.0 0.0 0.0 0.0 0.0 0.0 0.0 0.0 0.0 0.0 0.0 0.0 0.0 0.0 0.0 0.0 0.0 0.0 0.0 0.0
0.0 0.0 0.0 0.0 0.0 0.0 0.0 0.0 0.0 0.0 0.0 0.0 0.0 0.0 0.0 0.0 0.0 0.0 0.0 0.0 0.0 0.0 0.0 0.0 0.0 0.0 0.0 0.0 0.0 0.0 0.0 0.0 0.0 0.0 0.0 0.0 0.0 0.0 0.0 0.0 0.0 0.0 0.0
0.0 0.0 0.0 0.0 0.0 0.0 0.0 0.0 0.0 0.0 0.0 0.0 0.0 0.0 0.0 0.0 0.0 0.0 0.0 0.0 0.0 0.0 0.0 0.0 0.0 0.0 0.0 0.0 0.0 0.0 0.0 0.0 0.0 0.0 0.0 0.0 0.0 0.0 0.0 0.0 0.0 0.0 0.0
0.0 0.0 0.0 0.0 0.0 0.0 0.0 0.0 0.0 0.0 0.0 0.0 0.0 0.0 0.0 0.0 0.0 0.0 0.0 0.0 0.0 0.0 0.0 0.0 0.0 0.0 0.0 0.0 0.0 0.0 0.0 0.0 0.0 0.0 0.0 0.0 0.0 0.0 0.0 0.0 0.0 0.0 0.0
0.0 0.0 0.0 0.0 0.0 0.0 0.0 0.0 0.0 0.0 0.0 0.0 0.0 0.0 0.0 0.0 0.0 0.0 0.0 0.0 0.0 0.0 0.0 0.0 0.0 0.0 0.0 0.0 0.0 0.0 0.0 0.0 0.0 0.0 0.0 0.0 0.0 0.0 0.0 0.0 0.0 0.0 0.0
3.1 1.7 0.5 0.0 0.0 0.0 0.0 0.0 0.0 0.0 0.0 0.0 0.0 0.0 0.0 0.0 0.0 0.0 0.0 0.0 0.0 0.0 0.0 0.0 0.0 0.0 0.0 0.0 0.0 0.0 0.0 0.0 0.0 0.0 0.0 0.0 0.0 0.0 0.1 0.1 0.1 0.0 0.0
0.0 3.1 1.6 1.6 0.9 0.0 0.0 0.0 0.0 0.0 0.0 0.0 0.0 0.0 0.0 0.0 0.0 0.0 0.0 0.0 0.0 0.0 0.0 0.0 0.0 0.0 0.0 0.0 0.0 0.0 0.0 0.0 0.0 0.0 0.0 0.0 0.0 0.2 0.0 0.2 0.3 0.5 0.3
3.1 0.0 1.6 0.8 0.0 0.0 0.0 0.0 0.0 0.0 0.0 0.0 0.0 0.0 0.0 0.0 0.0 0.0 0.0 0.0 0.0 0.0 0.0 0.0 0.0 0.0 0.0 0.0 0.0 0.0 0.0 0.1 0.1 0.1 0.1 0.0 0.0 0.2 0.2 0.3 0.5 0.6 0.7
1.0 1.0 0.9 0.6 0.0 0.0 0.0 0.2 0.2 0.0 0.1 0.0 0.0 0.0 0.0 0.0 0.0 0.0 0.0 0.0 0.0 0.0 0.0 0.0 0.0 0.0 0.0 0.0 0.0 0.0 0.0 0.0 0.4 0.1 0.2 0.1 0.5 0.6 0.5 0.7 0.7 0.7 0.6
0.0 0.3 0.2 0.1 0.0 0.0 0.0 0.0 0.0 0.0 0.0 0.0 0.0 0.0 0.0 0.0 0.0 0.0 0.0 0.0 0.0 0.0 0.0 0.0 0.0 0.0 0.0 0.0 0.0 0.0 0.0 0.0 0.0 0.0 0.0 0.0 0.2 0.2 0.4 0.8 1.1 1.1 0.8
0.0 0.0 0.0 0.0 0.0 0.0 0.0 0.0 0.0 0.0 0.0 0.0 0.0 0.0 0.0 0.0 0.0 0.0 0.0 0.0 0.0 0.0 0.0 0.0 0.0 0.0 0.0 0.0 0.0 0.0 0.0 0.0 0.1 0.1 0.1 0.1 0.1 0.1 0.1 0.1 0.2 0.1 0.2
0.0 0.0 0.0 0.0 0.0 0.0 0.0 0.0 0.0 0.0 0.0 0.0 0.0 0.0 0.0 0.0 0.0 0.0 0.0 0.0 0.0 0.0 0.0 0.0 0.0 0.0 0.0 0.0 0.0 0.0 0.0 0.0 0.0 0.3 0.1 0.0 0.0 0.1 0.0 0.3 0.3 0.2 0.2
0.0 0.0 0.0 0.0 0.0 0.0 0.0 0.0 0.0 0.0 0.0 0.0 0.0 0.0 0.0 0.0 0.0 0.0 0.0 0.0 0.0 0.0 0.0 0.0 0.0 0.0 0.0 0.0 0.0 0.0 0.1 0.3 0.5 0.2 0.2 0.0 0.1 0.4 0.2 0.2 0.3 0.1 0.1
0.1 0.0 0.0 0.0 0.0 0.0 0.1 0.1 0.1 0.2 0.0 0.2 0.0 0.0 0.0 0.0 0.0 0.0 0.0 0.0 0.0 0.0 0.0 0.4 0.0 0.0 0.4 0.7 0.0 0.4 0.5 0.7 0.0 0.5 0.1 0.0 0.4 0.4 0.1 0.0 0.1 0.3 0.5
0.2 0.0 0.5 0.1 0.3 0.4 0.6 0.7 0.7 0.4 0.1 0.4 0.3 0.4 1.4 0.0 0.9 0.9 1.3 1.6 1.2 0.8 1.7 1.8 1.7 2.5 2.5 2.2 1.0 0.5 0.3 0.3 0.7 0.2 0.0 0.0 0.4 0.2 0.1 0.5 0.3 0.2 0.1
2.9 2.3 2.2 2.1 1.8 1.0 1.1 0.8 1.6 0.9 3.6 2.7 3.2 2.9 4.1 4.7 6.1 6.3 5.9 5.2 4.0 3.6 3.8 5.1 4.2 4.3 4.3 2.9 2.5 2.5 2.6 2.3 1.4 2.0 1.8 1.5 0.5 0.2 0.4 0.3 0.3 0.3 0.2
5.1 7.8 2.8 2.8 3.3 2.7 2.9 7.3 6.3 6.6 6.5 7.9 8.6 8.7 9.3 8.5 8.1 8.8 8.1 7.3 7.0 5.9 6.5 5.0 5.1 4.5 3.8 3.8 3.6 4.3 3.0 2.4 2.2 2.2 1.5 1.3 1.7 3.2 4.3 0.8 0.9 1.7 2.1
5.6 5.3 8.6 8.1 6.4 6.7 4.7 7.1 10.5 12.9 13.6 15.3 15.9 11.2 9.9 9.4 10.6 8.9 10.4 11.0 7.6 7.2 6.6 10.2 6.7 6.7 3.3 4.0 6.2 4.0 5.0 3.0 6.8 3.2 3.0 3.9 1.8 2.2 2.3 0.9 1.4 2.4 3.1
5.2 5.3 4.8 6.3 9.1 8.4 8.6 9.3 11.8 13.2 15.3 18.0 15.9 13.1 12.9 13.7 12.7 11.7 11.5 14.9 16.5 12.9 7.9 9.1 9.5 8.7 6.7 10.2 11.6 6.4 9.7 8.3 4.5 4.9 2.8 4.4 5.5 6.2 2.8 3.3 4.5 7.7 3.6
4.0 3.3 3.7 3.6 2.8 2.2 2.1 7.9 12.4 15.1 17.2 17.0 14.1 11.9 10.9 11.0 12.1 11.7 13.1 12.6 13.5 16.9 19.3 17.7 15.8 15.3 14.7 14.7 12.1 11.3 11.1 9.2 8.0 7.2 6.8 6.8 5.9 4.9 7.1 6.1 6.2 7.2 6.3
2.5 1.3 1.2 0.6 0.4 0.4 0.2 1.3 3.5 7.5 11.6 12.6 12.0 10.4 9.5 8.8 7.7 7.9 9.4 10.3 10.6 10.2 10.5 10.8 12.6 14.2 15.1 16.0 15.2 16.0 15.3 13.6 12.5 12.8 12.4 11.4 8.1 6.5 7.5 8.0 9.5 10.8 7.1
1.7 0.6 0.1 0.0 0.3 0.5 0.6 0.1 1.3 2.9 4.2 4.7 5.4 6.0 5.9 6.2 6.0 5.3 5.2 5.1 6.3 6.8 7.9 7.9 7.8 7.7 7.4 9.0 9.4 9.7 9.1 8.9 11.1 11.4 12.9 11.1 14.2 16.3 13.4 19.1 18.1 14.1 18.3
3.2 1.2 0.6 0.5 0.9 0.5 0.3 1.2 1.9 2.5 3.5 4.2 4.4 4.4 4.4 4.0 3.8 4.0 3.5 3.1 4.4 3.1 3.2 4.3 4.3 4.6 7.0 8.3 7.2 6.9 8.7 9.1 9.9 14.6 20.5 20.3 20.3 19.9 19.8 19.3 19.0 18.6 17.5
2.3 1.5 1.5 1.0 1.3 0.1 1.3 1.8 1.6 0.9 1.4 2.1 3.3 2.7 3.3 2.3 2.3 1.6 3.5 3.8 3.3 3.3 2.2 2.0 5.7 6.5 10.8 14.5 14.1 13.7 13.4 14.0 13.4 13.1 13.2 13.2 12.1 11.8 11.7 10.5 10.3 9.4 9.0